• In Russia
  • List of Countries
  • For 7 days
  • Water Temperature
  • Satellite Maps
  • Weather Map
  • Weather Widgets
  • user-avatar
    Login

    Hourly Weather Dikhil

    Today, 25 May, Friday

    Time Temperature Precipitation Wind Pressure Humidity
    00:00 +36°C° 0 mm 3 mps 713 mmHg 29%
    01:00 +36°C° 0 mm 2 mps 713 mmHg 29%
    02:00 +36°C° 0 mm 2 mps 713 mmHg 30%
    03:00 +35°C° 0 mm 2 mps 712 mmHg 30%
    04:00 +35°C° 0 mm 2 mps 713 mmHg 31%
    05:00 +35°C° 0 mm 2 mps 713 mmHg 33%
    06:00 +34°C° 0 mm 2 mps 713 mmHg 34%
    07:00 +35°C° 0 mm 3 mps 714 mmHg 31%
    08:00 +36°C° 0 mm 4 mps 714 mmHg 29%
    09:00 +39°C° 0 mm 5 mps 714 mmHg 27%
    10:00 +40°C° 0 mm 4 mps 714 mmHg 24%
    11:00 +41°C° 0 mm 4 mps 714 mmHg 21%
    12:00 +42°C° 0 mm 3 mps 714 mmHg 18%
    13:00 +42°C° 0 mm 3 mps 713 mmHg 17%
    14:00 +43°C° 0 mm 3 mps 713 mmHg 16%
    15:00 +43°C° 0 mm 3 mps 712 mmHg 15%
    16:00 +43°C° 0 mm 3 mps 712 mmHg 15%
    17:00 +42°C° 0 mm 2 mps 712 mmHg 15%
    18:00 +42°C° 0 mm 2 mps 712 mmHg 15%
    19:00 +41°C° 0 mm 2 mps 712 mmHg 16%
    20:00 +41°C° 0 mm 2 mps 713 mmHg 18%
    21:00 +40°C° 0 mm 2 mps 713 mmHg 20%
    22:00 +39°C° 0 mm 2 mps 713 mmHg 22%
    23:00 +38°C° 0 mm 2 mps 713 mmHg 24%

    Tomorrow, 26 May, Saturday

    Time Temperature Precipitation Wind Pressure Humidity
    00:00 +37°C° 0 mm 2 mps 713 mmHg 26%
    01:00 +37°C° 0 mm 2 mps 712 mmHg 29%
    02:00 +35°C° 0 mm 1 mps 712 mmHg 31%
    03:00 +34°C° 0 mm 1 mps 712 mmHg 33%
    04:00 +34°C° 0 mm 1 mps 712 mmHg 34%
    05:00 +35°C° 0 mm 2 mps 712 mmHg 35%
    06:00 +34°C° 0 mm 2 mps 712 mmHg 37%
    07:00 +35°C° 0 mm 2 mps 713 mmHg 33%
    08:00 +37°C° 0 mm 3 mps 713 mmHg 30%
    09:00 +38°C° 0 mm 4 mps 714 mmHg 27%
    10:00 +40°C° 0 mm 4 mps 714 mmHg 24%
    11:00 +41°C° 0 mm 4 mps 714 mmHg 21%
    12:00 +42°C° 0 mm 4 mps 714 mmHg 18%
    13:00 +43°C° 0 mm 3 mps 713 mmHg 17%
    14:00 +43°C° 0 mm 3 mps 713 mmHg 15%
    15:00 +43°C° 0 mm 2 mps 712 mmHg 14%
    16:00 +43°C° 0 mm 2 mps 712 mmHg 14%
    17:00 +42°C° 0 mm 2 mps 712 mmHg 15%
    18:00 +42°C° 0 mm 2 mps 712 mmHg 15%
    19:00 +41°C° 0 mm 2 mps 713 mmHg 18%
    20:00 +40°C° 0 mm 2 mps 713 mmHg 21%
    21:00 +39°C° 0 mm 2 mps 713 mmHg 24%
    22:00 +39°C° 0 mm 2 mps 713 mmHg 26%
    23:00 +38°C° 0 mm 2 mps 713 mmHg 28%

    Day after tomorrow, 27 May, Sunday

    Time Temperature Precipitation Wind Pressure Humidity
    00:00 +37°C° 0 mm 2 mps 713 mmHg 30%
    01:00 +37°C° 0 mm 2 mps 713 mmHg 32%
    02:00 +36°C° 0 mm 2 mps 713 mmHg 34%
    03:00 +35°C° 0 mm 1 mps 712 mmHg 35%
    04:00 +34°C° 0 mm 1 mps 713 mmHg 36%
    05:00 +34°C° 0 mm 1 mps 713 mmHg 37%
    06:00 +34°C° 0 mm 2 mps 713 mmHg 38%
    07:00 +35°C° 0 mm 3 mps 714 mmHg 35%
    08:00 +37°C° 0 mm 3 mps 715 mmHg 32%
    09:00 +38°C° 0 mm 4 mps 715 mmHg 29%
    10:00 +40°C° 0 mm 4 mps 715 mmHg 26%
    11:00 +41°C° 0 mm 4 mps 715 mmHg 24%
    12:00 +42°C° 0 mm 5 mps 715 mmHg 21%
    13:00 +43°C° 0 mm 4 mps 714 mmHg 20%
    14:00 +43°C° 0 mm 3 mps 714 mmHg 18%
    15:00 +43°C° 0 mm 2 mps 713 mmHg 17%
    16:00 +42°C° 0 mm 2 mps 713 mmHg 17%
    17:00 +42°C° 0 mm 2 mps 713 mmHg 18%
    18:00 +42°C° 0 mm 2 mps 713 mmHg 18%
    19:00 +41°C° 0 mm 2 mps 713 mmHg 21%
    20:00 +40°C° 0 mm 2 mps 714 mmHg 24%
    21:00 +39°C° 0 mm 2 mps 714 mmHg 27%
    22:00 +39°C° 0 mm 2 mps 714 mmHg 29%
    23:00 +38°C° 0 mm 3 mps 714 mmHg 31%

    28 May, Monday

    Time Temperature Precipitation Wind Pressure Humidity
    00:00 +37°C° 0 mm 3 mps 714 mmHg 33%
    01:00 +37°C° 0 mm 2 mps 713 mmHg 34%
    02:00 +36°C° 0 mm 2 mps 713 mmHg 35%
    03:00 +36°C° 0 mm 2 mps 713 mmHg 37%
    04:00 +34°C° 0 mm 1 mps 713 mmHg 38%
    05:00 +34°C° 0 mm 1 mps 714 mmHg 39%
    06:00 +34°C° 0 mm 1 mps 714 mmHg 39%
    07:00 +36°C° 0 mm 2 mps 715 mmHg 36%
    08:00 +37°C° 0 mm 3 mps 715 mmHg 33%
    09:00 +38°C° 0 mm 3 mps 716 mmHg 30%
    10:00 +40°C° 0 mm 4 mps 715 mmHg 27%
    11:00 +41°C° 0 mm 4 mps 715 mmHg 24%
    12:00 +42°C° 0 mm 5 mps 715 mmHg 22%
    13:00 +43°C° 0 mm 4 mps 714 mmHg 20%
    14:00 +43°C° 0 mm 3 mps 714 mmHg 18%
    15:00 +44°C° 0 mm 3 mps 713 mmHg 17%
    16:00 +43°C° 0 mm 3 mps 713 mmHg 17%
    17:00 +42°C° 0 mm 2 mps 713 mmHg 17%
    18:00 +42°C° 0 mm 2 mps 713 mmHg 18%
    19:00 +41°C° 0 mm 2 mps 713 mmHg 20%
    20:00 +41°C° 0 mm 2 mps 713 mmHg 22%
    21:00 +40°C° 0 mm 2 mps 714 mmHg 24%
    22:00 +39°C° 0 mm 2 mps 714 mmHg 26%
    23:00 +39°C° 0 mm 3 mps 714 mmHg 28%

    29 May, Tuesday

    Time Temperature Precipitation Wind Pressure Humidity
    00:00 +38°C° 0 mm 3 mps 714 mmHg 31%
    01:00 +37°C° 0 mm 2 mps 713 mmHg 32%
    02:00 +37°C° 0 mm 2 mps 713 mmHg 34%
    03:00 +36°C° 0 mm 2 mps 713 mmHg 35%
    04:00 +36°C° 0 mm 2 mps 713 mmHg 36%
    05:00 +35°C° 0 mm 2 mps 713 mmHg 37%
    06:00 +34°C° 0 mm 1 mps 714 mmHg 38%
    07:00 +36°C° 0 mm 2 mps 714 mmHg 35%
    08:00 +37°C° 0 mm 3 mps 715 mmHg 32%
    09:00 +38°C° 0 mm 4 mps 716 mmHg 30%
    10:00 +40°C° 0 mm 4 mps 715 mmHg 27%
    11:00 +41°C° 0 mm 4 mps 715 mmHg 24%
    12:00 +42°C° 0 mm 5 mps 714 mmHg 21%
    13:00 +43°C° 0 mm 4 mps 714 mmHg 20%
    14:00 +43°C° 0 mm 3 mps 713 mmHg 18%
    15:00 +44°C° 0 mm 3 mps 712 mmHg 16%
    16:00 +44°C° 0 mm 3 mps 712 mmHg 16%
    17:00 +44°C° 0 mm 3 mps 712 mmHg 16%
    18:00 +42°C° 0 mm 2 mps 712 mmHg 16%
    19:00 +42°C° 0 mm 2 mps 713 mmHg 18%
    20:00 +41°C° 0 mm 2 mps 713 mmHg 20%
    21:00 +40°C° 0 mm 1 mps 713 mmHg 21%
    22:00 +40°C° 0 mm 2 mps 713 mmHg 23%
    23:00 +39°C° 0 mm 2 mps 713 mmHg 25%

    30 May, Wednesday

    Time Temperature Precipitation Wind Pressure Humidity
    00:00 +38°C° 0 mm 2 mps 713 mmHg 27%
    01:00 +38°C° 0 mm 2 mps 712 mmHg 29%
    02:00 +37°C° 0 mm 2 mps 712 mmHg 31%
    03:00 +36°C° 0 mm 2 mps 712 mmHg 33%
    04:00 +35°C° 0 mm 1 mps 713 mmHg 34%
    05:00 +34°C° 0 mm 1 mps 713 mmHg 35%
    06:00 +34°C° 0 mm 1 mps 714 mmHg 36%
    07:00 +36°C° 0 mm 2 mps 714 mmHg 32%
    08:00 +37°C° 0 mm 3 mps 715 mmHg 28%
    09:00 +40°C° 0 mm 4 mps 715 mmHg 24%
    10:00 +40°C° 0 mm 3 mps 715 mmHg 21%
    11:00 +42°C° 0 mm 3 mps 715 mmHg 19%
    12:00 +43°C° 0 mm 3 mps 714 mmHg 16%
    13:00 +43°C° 0 mm 3 mps 714 mmHg 15%
    14:00 +44°C° 0 mm 3 mps 713 mmHg 14%
    15:00 +44°C° 0 mm 3 mps 713 mmHg 13%
    16:00 +44°C° 0 mm 3 mps 713 mmHg 13%
    17:00 +44°C° 0 mm 3 mps 713 mmHg 13%
    18:00 +44°C° 0 mm 3 mps 713 mmHg 13%
    19:00 +43°C° 0 mm 3 mps 713 mmHg 16%
    20:00 +42°C° 0 mm 4 mps 714 mmHg 18%
    21:00 +41°C° 0 mm 4 mps 714 mmHg 21%
    22:00 +40°C° 0 mm 4 mps 714 mmHg 23%
    23:00 +38°C° 0 mm 4 mps 714 mmHg 24%
    Show more